Simultaneous Nadir Overpasses (SNOs) Predictions

Prediction of SNOs between TERRA and METOP-C Satellite Orbit:

Table of predicted SNOs for the next 14.0 days since TLE Epoch: 7/10/2021
Index Date (TERRA) Time (TERRA) Lat,Lon (TERRA) SZA (TERRA ) Date (METOP-C) Time (METOP-C) Lat,Lon (METOP-C) SZA (METOP-C ) Distance(km) Time Diff (sec)
1 07/10/2021 12:17:46 81.30, 41.46 61.75 07/10/2021 12:17:26 81.30, 41.48 61.75 0.55 20
2 07/10/2021 13:07:13 -81.29,-151.00 118.26 07/10/2021 13:08:07 -81.30,-151.02 118.23 0.68 54
3 07/13/2021 07:51:58 81.30, 107.85 62.12 07/13/2021 07:51:47 81.30, 107.93 62.13 1.33 11
4 07/13/2021 08:41:25 -81.29, -84.58 117.89 07/13/2021 08:42:28 -81.30, -84.59 117.85 0.76 63
5 07/16/2021 02:37:04 -80.76, -0.94 118.66 07/16/2021 02:35:50 -81.03, -1.79 118.56 33.38 74
6 07/16/2021 03:26:09 81.29, 174.20 62.54 07/16/2021 03:26:07 81.30, 174.36 62.56 2.73 2
7 07/16/2021 04:15:35 -81.31, -17.83 117.41 07/16/2021 04:16:47 -81.31, -17.79 117.38 0.79 72
8 07/18/2021 22:10:55 -81.28, 72.85 117.02 07/18/2021 22:09:49 -81.29, 72.94 117.04 1.57 66
9 07/18/2021 23:00:20 81.31,-119.11 63.05 07/18/2021 23:00:28 81.30,-119.23 63.04 2.21 8
10 07/21/2021 17:45:06 -81.30, 139.53 116.46 07/21/2021 17:44:09 -81.29, 139.70 116.47 2.90 57



Historial Predications of SNOs between TERRA and METOP-C
